COSMOS 1275 DEB

Satellite information

Favourite Embed

Satellite Type and Status

DEBRISIN ORBIT

Key statistics

Satellite COSMOS 1275 DEB at a glance.

Uptime

16264

Days in orbit

Revolutions

≈ 14.1

Per day

Orbit

LEO

Low Earth Orbit

Inclination

83.0

Latest

Satellite identification and parameters

Extended collection of information and parameters for COSMOS 1275 DEB.

Object identification

Identified? True

Debris? True

Object name: COSMOS 1275 DEB

International designator: 1981-053GM

Object number (NORAD): 13619

Object ID (CCSDS): 13619

Country: COMMONWEALTH OF INDEPENDENT STATES (CIS)

Current information (Y/N): Y

RCS size: SMALL

Orbital parameters

Period: 102.161 minutes

Inclination: 83.0291 deg

SMA: 7239.092 km

Apoapsis: 875.471 km

Periapsis: 846.444 km

RAAN: 250.6069 deg

Eccentricy: 0.00200489

Argument of periapsis: 177.1622 deg

Mean anomaly: 198.117 deg

Mean motion: 14.09537335 rev/day

Mean motion (dot): 0.00003709 rev/day2

B* drag term: 0.0021085241 1/REarth

Two-line elements (TLE)

Creation date: Dec. 13, 2025, 4:32 a.m.

Reference frame: TEME

Reference center: EARTH

Epoch: Dec. 12, 2025, 11:51 p.m. UTC

TLE line 0: 0 COSMOS 1275 DEB

TLE line 1: 1 13619U 81053GM 25346.99410562 .00003709 00000-0 21085-2 0 9990

TLE line 2: 2 13619 83.0291 250.6069 0020049 177.1622 198.1170 14.09537335196917

Live tracking on map

Real-time ground track for satellite COSMOS 1275 DEB.

In-orbit conjunctions

A list of the most updated potential collisions computed for object COSMOS 1275 DEB.

Target Orbit TCA Probability of collision Miss distance Type
GGSE 3 LEO 2025-10-08 01:45:34 0.003465395 147.0 (m) PAYLOAD
FENGYUN 1C DEB SSO 2024-11-12 12:39:39 0.0001781991 659.0 (m) DEBRIS

Associated space launch

Navigation satellite providing location information for the Tsiklon-B navigation system

COSMOS 1275 DEB was lifted into orbit during the mission ‘Kosmos-3M | Parus 27’, on board a Kosmos-3M space rocket.

The launch took place on June 4, 1981, 3:41 p.m. from 132/2.

For more information about the launch, click the button.

Launch to space Kosmos-3M | Parus 27
Kosmos-3M | Parus 27

Agency: N/A

Status: Launch Successful

Launch date: June 4, 1981, 3:41 p.m. UTC

Rocket: Kosmos-3M

Launch pad: 132/2

Location: Plesetsk Cosmodrome, Russian Federation

...

Latest news about this satellite

There are no fresh news available about this satellite. Check back as we update our databases every day.


Newsletter sign-up

Weekly statistics, charts and insights to help you stay on top of the space industry.